Location: Dappach
(48.9767°N, 9.6998°E)
Time: 19:59:46
(UTC+00:00)

COSMOS 2428 - Pass Details

Date: 18 August 2024
Orbit: 842 x 857 km, 70.9° (Epoch: 09 September)

Event Time Altitude Azimuth Distance (km) Brightness Sun altitude
Exits shadow 02:16:13 - 280° (W) 2,562 4.9 -17.5°
Reaches altitude 10° 02:16:33 10° 283° (WNW) 2,481 4.8 -17.4°
Maximum altitude 02:20:18 18° 324° (NW) 1,997 4.7 -17.0°
Drops below altitude 10° 02:24:06 10° 6° (N) 2,495 5.9 -16.6°
Sets 02:27:27 0° 25° (NNE) 3,437 7.2 -16.2°
